AO-07 1 07530U 74089B 17215.57186492 -.00000039 00000-0 36049-4 0 9990 2 07530 101.6342 183.3307 0011620 229.6016 244.7661 12.53628019954561 UO-11 1 14781U 84021B 17215.60362515 .00000053 00000-0 12825-4 0 9990 2 14781 097.6936 259.5619 0009635 051.4843 308.7234 14.82914188776371 LO-19 1 20442U 90005G 17215.41919933 -.00000005 00000-0 14196-4 0 9992 2 20442 098.5765 151.4576 0012101 014.1815 345.9706 14.32865626438325 HUBBLE 1 20580U 90037B 17214.99353043 .00000424 00000-0 15076-4 0 9998 2 20580 028.4704 058.2247 0002609 318.9146 192.7460 15.08808105297361 MET-2/21 1 22782U 93055A 17215.45399689 .00000045 00000-0 27836-4 0 9991 2 22782 082.5511 346.0709 0021200 299.9954 122.3884 13.83802085207966 AO-27 1 22825U 93061C 17215.14235320 -.00000004 00000-0 16065-4 0 9991 2 22825 098.8160 181.3116 0008142 186.9095 173.1976 14.30001872243848 IO-26 1 22826U 93061D 17215.51239215 .00000004 00000-0 19010-4 0 9992 2 22826 098.8103 181.7628 0008854 176.4426 183.6821 14.30331087244097 FO-29 1 24278U 96046B 17215.56234907 -.00000054 00000-0 -18035-4 0 9992 2 24278 098.5567 092.5051 0349800 214.5138 143.2838 13.53077108035030 NOAA-15 1 25338U 98030A 17215.58348994 .00000031 00000-0 31927-4 0 9997 2 25338 098.7815 226.5878 0011697 071.6964 288.5486 14.25809179999493 GO-32 1 25397U 98043D 17215.42511822 -.00000023 00000-0 89777-5 0 9990 2 25397 098.6116 156.7720 0000908 160.8959 199.2253 14.23625739990294 ISS 1 25544U 98067A 17215.31844775 .00000663 00000-0 17243-4 0 9991 2 25544 051.6420 163.3702 0006409 098.6062 020.2735 15.54248914069087 NO-44 1 26931U 01043C 17215.58211116 -.00000053 00000-0 11616-4 0 9998 2 26931 067.0527 328.9100 0007256 259.0937 100.9348 14.30468076827054 SO-50 1 27607U 02058C 17215.58794989 -.00000053 00000-0 12703-4 0 9998 2 27607 064.5568 340.7120 0030303 072.1300 288.3103 14.75344263785977 CO-55 1 27844U 03031E 17215.56883867 .00000044 00000-0 39815-4 0 9997 2 27844 098.6896 223.8859 0009140 204.0323 156.0429 14.22050199731010 CO-57 1 27848U 03031J 17215.51108190 .00000034 00000-0 35519-4 0 9991 2 27848 098.6987 224.1078 0008898 214.3121 145.7483 14.21663515730892 RS-22 1 27939U 03042A 17215.59403073 .00000057 00000-0 18600-4 0 9997 2 27939 097.9456 358.8230 0014371 077.6593 345.5628 14.66583334740124 NOAA-18 1 28654U 05018A 17215.59041811 -.00000009 00000-0 20699-4 0 9994 2 28654 099.1805 238.9583 0013360 301.1765 058.8095 14.12343895628857 CO-58 1 28895U 05043F 17215.42036335 .00000106 00000-0 29080-4 0 9996 2 28895 097.8699 015.5475 0016721 359.3234 000.7944 14.63416120627169 Falconsat-3 1 30776U 07006E 17215.13820271 .00002148 00000-0 68501-4 0 9995 2 30776 035.4359 128.7104 0002804 004.4226 355.6523 15.32479432575465 CO-65 1 32785U 08021C 17215.51966712 .00000193 00000-0 26665-4 0 9991 2 32785 097.5647 237.6265 0013548 018.6394 341.5316 14.87916050501862 AAUSAT2 1 32788U 08021F 17215.58907404 .00000466 00000-0 48936-4 0 9992 2 32788 097.5560 249.7809 0011236 339.7696 020.3078 14.93923656502653 DO-64 1 32789U 08021G 17215.16599278 .00001300 00000-0 95840-4 0 9997 2 32789 097.5564 272.4021 0011292 305.3315 054.6855 15.05001635503838 CO-66 1 32791U 08021J 17215.31245489 .00000248 00000-0 30945-4 0 9994 2 32791 097.5611 241.9386 0013413 003.7330 356.3986 14.90260672502086 RS-30 1 32953U 08025A 17215.44737230 .00000033 00000-0 16597-3 0 9990 2 32953 082.5007 210.2641 0018887 178.1152 182.0003 12.43078329417295 PRISM 1 33493U 09002B 17215.52823028 -.00000013 00000-0 45934-5 0 9994 2 33493 098.1628 099.9470 0014280 291.0335 068.9327 14.95729299462851 NOAA-19 1 33591U 09005A 17215.59744616 .00000059 00000-0 57270-4 0 9992 2 33591 099.0963 183.1063 0014658 135.6956 224.5391 14.12199223437082 TISAT-1 1 36799U 10035E 17215.34097160 .00000352 00000-0 42201-4 0 9992 2 36799 098.0671 339.0372 0012826 166.1054 194.0519 14.90435118382802 JUGNU 1 37839U 11058B 17215.20263766 .00000294 00000-0 14893-4 0 9997 2 37839 019.9604 165.4014 0018815 342.1006 147.2339 14.12588328300241 SRMSAT 1 37841U 11058D 17215.33365828 .00000277 00000-0 69459-5 0 9996 2 37841 019.9706 207.2625 0011652 238.6636 255.8096 14.10579545299949 AO-71 1 37854U 11061E 17215.54621974 .00000711 00000-0 46289-4 0 9992 2 37854 101.6964 113.2567 0167048 294.8693 063.5231 15.04228523313603 HRBE 1 37855U 11061F 17215.58881187 .00001279 00000-0 74819-4 0 9991 2 37855 101.7096 111.0953 0180283 301.5475 056.8239 15.03194143313440 ALMASAT-1 1 38078U 12006B 17215.64697139 .00015041 37343-5 16804-3 0 9994 2 38078 069.4406 004.4801 0307605 221.3718 136.3787 15.23287686292016 HORYU-2 1 38340U 12025D 17215.56203558 .00000147 00000-0 29719-4 0 9992 2 38340 098.3769 221.1540 0012548 136.4685 223.7515 14.75363114269861 RS-40 1 38735U 12041C 17215.55420862 .00000001 00000-0 -63779-4 0 9990 2 38735 082.4772 294.6518 0015553 285.3143 074.6217 12.42574793227550 BEESAT-3 1 39134U 13015E 17215.52386807 .00000776 00000-0 47428-4 0 9994 2 39134 064.8637 073.6537 0038053 256.7438 102.9443 15.17913720236281 BEESAT-2 1 39136U 13015G 17215.43593143 .00000776 00000-0 51093-4 0 9992 2 39136 064.8698 085.2895 0033856 275.9709 083.7557 15.15182715236042 ZACUBE-1 1 39417U 13066B 17215.59880766 .00000180 00000-0 29219-4 0 9991 2 39417 097.6260 255.5340 0060805 114.3861 246.3715 14.80733535199795 TRITON-1 1 39427U 13066M 17215.57933894 .00000151 00000-0 32234-4 0 9990 2 39427 097.6374 227.7609 0113916 196.2089 163.5462 14.67480933197809 GOMX-1 1 39430U 13066Q 17215.49669846 .00000157 00000-0 37977-4 0 9993 2 39430 097.6666 210.9319 0150361 253.5018 104.9617 14.58891446196640 LO-74 1 39440U 13066AA 17215.58108353 .00000186 00000-0 33027-4 0 9999 2 39440 097.6263 244.3238 0081712 145.7737 214.8778 14.75473604197885 AO-73 1 39444U 13066AE 17215.55495164 .00000233 00000-0 35309-4 0 9997 2 39444 097.6276 256.6069 0060015 111.2051 249.5588 14.81472024198035 SPROUT 1 39770U 14029E 17215.49252877 .00000381 00000-0 49444-4 0 9993 2 39770 097.8746 314.4049 0009604 164.0639 196.0876 14.86295696173163 DUCHIFAT-1 1 40021U 14033M 17215.57881714 .00000373 00000-0 44635-4 0 9994 2 40021 097.9157 128.8091 0013869 139.8833 220.3411 14.89928174169651 NANOSATCBR1 1 40024U 14033Q 17215.53523041 .00000204 00000-0 27530-4 0 9997 2 40024 097.9115 127.5781 0013172 140.8299 219.3873 14.89248459169072 EO-79 1 40025U 14033R 17215.54012486 .00000186 00000-0 26072-4 0 9994 2 40025 097.9095 126.5543 0013323 143.9919 216.2198 14.88446946169027 DTUSAT-2 1 40030U 14033W 17215.42285466 .00000219 00000-0 29835-4 0 9994 2 40030 097.9059 125.5020 0012853 138.8925 221.3262 14.88069313168969 EO-80 1 40032U 14033Y 17215.46714114 .00000209 00000-0 28822-4 0 9991 2 40032 097.9066 125.5521 0012823 139.2495 220.9683 14.88004064168952 ANTELSAT 1 40034U 14033AA 17215.60819729 .00000158 00000-0 31201-4 0 9995 2 40034 097.8530 098.0563 0059875 139.2436 221.3275 14.73719190167376 VELOX-1 1 40057U 14034E 17215.58003554 .00000200 00000-0 35873-4 0 9996 2 40057 098.1913 316.5161 0009618 265.1536 094.8576 14.77152059166759 DAURIA DX 1 1 40071U 14037C 17215.55954561 .00000095 00000-0 19662-4 0 9995 2 40071 098.3420 328.5200 0007201 260.7036 099.3364 14.81031509165989 UKUBE-1 1 40074U 14037F 17215.50663430 .00000202 00000-0 31725-4 0 9999 2 40074 098.3518 332.5619 0003252 253.7997 106.2861 14.83529043166190 HODOYOSHI-1 1 40299U 14070B 17215.51229347 .00000395 00000-0 20151-4 0 9995 2 40299 097.4021 297.5330 0011925 290.6661 126.7044 15.22319345152148 CHUBUSAT-1 1 40300U 14070C 17215.53297648 .00000525 00000-0 26755-4 0 9990 2 40300 097.3939 294.5592 0019288 299.1268 186.1698 15.20926425151989 QSAT-EOS 1 40301U 14070D 17215.56477530 .00000977 00000-0 43815-4 0 9991 2 40301 097.3875 294.7740 0025984 292.4951 179.2127 15.23335337152048 FIREBIRD FU3 1 40377U 15003B 17215.48393286 .00002080 00000-0 91860-4 0 9997 2 40377 099.1226 048.8819 0135341 205.2808 154.1756 15.15517928138164 FIREBIRD FU4 1 40378U 15003C 17215.54152050 .00001925 00000-0 85278-4 0 9990 2 40378 099.1229 048.9918 0135534 204.9955 154.4670 15.15537911138175 GRIFEX 1 40379U 15003D 17215.47065640 .00001497 00000-0 71288-4 0 9991 2 40379 099.1252 046.4867 0141303 213.4237 145.8011 15.13059306138029 NO-84 1 40654U 15025D 17215.03593461 .00004333 00000-0 85452-4 0 00407 2 40654 054.9944 027.1524 0179980 024.7655 336.1876 15.34123543006900 NO-83 1 40655U 15025E 17215.41061016 .00008103 00000-0 12267-3 0 00464 2 40655 054.9794 357.8663 0147469 041.6112 319.6031 15.44262428006977 DEORBITSAIL 1 40719U 15032E 17215.50562093 .00000363 00000-0 60026-4 0 9998 2 40719 097.9750 108.6597 0016666 356.6111 003.4983 14.76096785111300 NUDT-PHONESAT 1 40900U 15049B 17215.52098227 .00001719 00000-0 83820-4 0 9996 2 40900 097.4431 222.7757 0015645 064.1047 296.1799 15.19578122103646 XW-2A 1 40903U 15049E 17215.59105481 .00001627 00000-0 44283-4 0 9995 2 40903 097.4191 241.8765 0016646 094.9315 265.3831 15.38913010104932 XW-2C 1 40906U 15049H 17215.54524935 .00000572 00000-0 34427-4 0 9999 2 40906 097.4553 220.0909 0016647 054.6600 305.6185 15.14597667103408 XW-2D 1 40907U 15049J 17215.59142121 .00000608 00000-0 36280-4 0 9997 2 40907 097.4523 219.8871 0015972 052.9611 307.3080 15.14705712103419 LILACSAT-2 1 40908U 15049K 17215.57031194 .00000346 00000-0 23073-4 0 9998 2 40908 097.4627 219.5974 0017498 051.3081 308.9712 15.13156354103336 XW-2F 1 40910U 15049M 17215.56576098 .00000895 00000-0 50464-4 0 9990 2 40910 097.4542 220.6214 0016773 050.5730 309.6984 15.15615925103450 XW-2B 1 40911U 15049N 17215.53264862 .00000599 00000-0 35831-4 0 9993 2 40911 097.4566 220.2295 0015887 053.5004 306.7689 15.14666439103303 DCBB 1 40912U 15049P 17215.49891030 .00000965 00000-0 51048-4 0 9997 2 40912 097.4519 222.5298 0017213 042.1806 082.3361 15.17726370103464 TW-1C 1 40926U 15051B 17215.47807005 .00004792 00000-0 10946-3 0 9995 2 40926 097.2265 254.6801 0011426 007.9896 099.4162 15.43278669104213 TW-1A 1 40928U 15051D 17215.57798186 .00002396 00000-0 69580-4 0 9994 2 40928 097.2242 250.5409 0013702 034.3789 088.2556 15.36388406103971 IO-86 1 40931U 15052B 17215.45963991 .00000793 00000-0 21431-4 0 9996 2 40931 005.9986 255.6569 0013217 194.7567 165.2319 14.76535859099960 GomX-3 1 40949U 98067HA 16292.18357804 .08527750 12374-4 77882-3 0 9992 2 40949 51.6055 106.7696 0006699 286.1344 73.8944 16.38002265 59645 LQSat 1 40958U 15057A 17215.52792884 .00000004 00000-0 84885-5 0 9997 2 40958 097.9756 290.0153 0016843 275.8413 084.0879 14.72975090098099 AO-85 1 40967U 15058D 17215.14123693 .00000114 00000-0 32533-4 0 00425 2 40967 064.7781 076.4521 0174305 060.6175 301.2206 14.75459054006724 ATHENOXAT-1 1 41168U 15077C 17215.30604407 .00001484 00000-0 46122-4 0 9996 2 41168 014.9824 185.1862 0011670 309.7332 079.7310 15.11683399090184 ChubuSat-2 1 41338U 16012B 17215.27390863 .00000297 00000-0 16518-4 0 9996 2 41338 031.0025 173.2039 0013996 165.9809 194.1217 14.99765739080062 ChubuSat-3 1 41339U 16012C 17215.26224911 .00000243 00000-0 12255-4 0 9991 2 41339 031.0102 172.3480 0013810 172.6769 187.4067 14.99969032080042 Horyu-4 1 41340U 16012D 17215.21524385 .00000433 00000-0 26653-4 0 9994 2 41340 031.0045 169.8175 0014346 180.8897 179.1715 15.00633615080080 OUFTI-1 1 41458U 16025C 17215.63883900 .00001381 00000-0 76975-4 0 9990 2 41458 098.1836 255.9366 0175775 130.8073 230.8549 15.03316416069713 e-st@r-II 1 41459U 16025D 17215.59838242 .00002218 00000-0 12176-3 0 9997 2 41459 098.1805 255.8322 0175161 131.4406 230.2016 15.03135086069699 AAUSAT4 1 41460U 16025E 17215.36758469 .00001647 00000-0 91123-4 0 9991 2 41460 098.1772 255.7200 0169174 130.0614 231.5576 15.04079038069680 MinXSS 1 41474U 98067HU 17125.52237589 .05724416 12300-4 86147-3 0 9995 2 41474 051.6449 208.6967 0008167 329.0747 030.9230 16.33400422055623 CADRE 1 41475U 98067HV 17003.74787607 .12518598 12537-4 55989-3 0 9998 2 41475 51.6110 110.0165 0004040 312.3134 47.7551 16.43344525 36494 NODES 1 1 41477U 98067HX 17215.09170823 .00089501 00000-0 30115-3 0 9995 2 41477 051.6247 118.1475 0000857 179.1380 180.9627 15.89301817069513 NODES 2 1 41478U 98067HY 17215.15471626 .00082950 00000-0 29292-3 0 9993 2 41478 051.6286 118.6212 0000926 166.8825 193.2204 15.88364085069518 LO-87 1 41557U 16033B 17215.19206599 .00001007 00000-0 40549-4 0 9996 2 41557 097.4616 294.7089 0013798 195.2098 164.8728 15.27165952065604 NuSat2 1 41558U 16033C 17215.42623478 .00001195 00000-0 47841-4 0 9992 2 41558 097.4644 295.0033 0013254 192.9703 167.1197 15.27004120065631 Lapan A3 1 41603U 16040E 17215.59697473 -.00000023 00000-0 21845-5 0 9992 2 41603 097.4571 277.0064 0011993 270.3527 195.7417 15.19373103061851 Swayam 1 41607U 16040J 17215.43635293 .00001266 00000-0 60289-4 0 9994 2 41607 097.4574 277.2449 0012627 271.3874 088.5915 15.20923275061785 Pratham 1 41783U 16059A 17215.42582012 .00000047 00000-0 18612-4 0 9997 2 41783 098.1636 276.3020 0033901 015.1251 345.0956 14.62847591045502 AlSat 1N 1 41789U 16059G 17215.44360686 .00000031 00000-0 15218-4 0 9998 2 41789 098.1642 276.9117 0028703 009.5999 350.5752 14.64060946045528 ScatSat 1 41790U 16059H 17215.59808499 .00000011 00000-0 13684-4 0 9998 2 41790 098.0613 263.6314 0011283 008.5630 351.5755 14.50114930045134 TY-1 1 41844U 16066D 17215.49311999 .00000846 00000-0 39797-4 0 9998 2 41844 097.4058 221.9348 0017988 074.0213 082.7710 15.22137238040536 CAS-2T 1 41845U 16066E 17215.37159954 .00000052 00000-0 17609-4 0 9994 2 41845 098.7762 232.1303 0367901 108.1631 255.9971 14.37768980038274 Pegasus-1 1 41846U 16066F 17215.58883398 .00000294 00000-0 54406-4 0 9998 2 41846 098.7793 232.1051 0370477 108.9591 255.2123 14.37050352038284 STARS-C 1 41895U 98067KR 17215.34491094 .00018236 00000-0 19734-3 0 9994 2 41895 051.6368 155.5458 0005185 119.2249 240.9264 15.63633709035365 Tancredo 1 1 41931U 98067KT 17215.34073538 .00046052 00000-0 34679-3 0 9996 2 41931 051.6346 150.2223 0007020 091.4100 268.7702 15.72015744031006 TO-89 1 41932U 98067KU 17215.10743712 .00010118 00000-0 12756-3 0 9995 2 41932 051.6396 159.2410 0006364 084.4393 275.7326 15.60258177030864 AOBA-V3LOX3 1 41935U 98067KX 17215.40694683 .00009365 00000-0 11664-3 0 9992 2 41935 051.6394 157.4860 0005830 088.3945 271.7716 15.60691775031019 OSNSAT 1 41939U 98067KZ 17215.20386548 .00022528 00000-0 22133-3 0 9991 2 41939 051.6366 154.5956 0007261 088.6390 271.5438 15.65915970030292 EO-88 1 42017U 17008BX 17215.54136950 .00001236 00000-0 55387-4 0 9993 2 42017 097.4919 276.9013 0008027 063.3098 296.8960 15.23119209025694 HAVELSAT 1 42700U 98067LH 17215.39988441 .00009348 00000-0 13476-3 0 9993 2 42700 051.6386 161.9229 0007039 130.9833 229.1768 15.56754886012294 SOMP2 1 42701U 98067LJ 17215.40433710 .00007914 00000-0 11593-3 0 9995 2 42701 051.6391 161.9545 0006983 132.1887 227.9699 15.56572282012288 Columbia 1 42702U 98067LK 17215.42639876 .00017440 00000-0 23138-3 0 9992 2 42702 051.6387 161.3496 0007543 123.8136 236.3576 15.58316383012222 PHOENIX 1 42706U 98067LP 17215.08121371 .00007720 00000-0 11295-3 0 9995 2 42706 051.6391 163.5486 0002638 099.9918 260.1371 15.56655516012157 X-CubeSat 1 42707U 98067LQ 17215.21066372 .00008448 00000-0 12297-3 0 9991 2 42707 051.6387 162.9107 0002711 099.8849 260.2448 15.56649177012163 qbee 1 42708U 98067LR 17215.21248523 .00008324 00000-0 12145-3 0 9997 2 42708 051.6387 162.9233 0002798 098.8520 261.2789 15.56607596012128 ZA-AeroSat 1 42713U 98067LU 17215.41825613 .00006647 00000-0 99775-4 0 9997 2 42713 051.6391 162.0471 0003518 075.1429 284.9952 15.56218465011868 LINK 1 42714U 98067LV 17215.22137851 .00010418 00000-0 15058-3 0 9999 2 42714 051.6385 162.9804 0003833 078.9632 281.1791 15.56547539011944 UPSat 1 42716U 98067LX 17215.40296697 .00009770 00000-0 14035-3 0 9998 2 42716 051.6385 161.9445 0005380 130.2958 229.8504 15.56796082011993 SpaceCube 1 42717U 98067LY 17215.41123469 .00008582 00000-0 12554-3 0 9990 2 42717 051.6390 161.9997 0005332 130.8087 229.3367 15.56485770011236 Hoopoe 1 42718U 98067LZ 17215.47171613 .00009766 00000-0 14104-3 0 9999 2 42718 051.6390 161.6545 0005398 129.6519 230.4950 15.56652140011240 Challenger 1 42721U 98067MA 17215.22271985 .00011453 00000-0 16339-3 0 9997 2 42721 051.6387 162.9879 0008838 114.9066 245.2845 15.56763329010901 NJUST-1 1 42722U 98067MB 17215.43406950 .00006822 00000-0 10313-3 0 9993 2 42722 051.6389 162.1501 0008492 118.2399 241.9451 15.55961035010932 UNSW-EC0 1 42723U 98067MC 17215.42653630 .00008294 00000-0 12224-3 0 9990 2 42723 051.6390 162.1007 0008549 116.5258 243.6611 15.56318247010911 DUTHsat 1 42724U 98067MD 17215.48492244 .00010929 00000-0 15705-3 0 9994 2 42724 051.6387 161.7402 0007779 117.8625 242.3156 15.56628894010864 LO-90 1 42725U 98067ME 17215.24378664 .00008266 00000-0 12350-3 0 9992 2 42725 051.6390 163.1304 0007517 119.1328 241.0416 15.55953720010808 nSIGHT1 1 42726U 98067MF 17215.25452035 .00004924 00000-0 77848-4 0 9990 2 42726 051.6394 163.2024 0007377 121.1877 238.9838 15.55443928010817 QBITO 1 42728U 98067MH 17215.23564392 .00007802 00000-0 11586-3 0 9994 2 42728 051.6393 163.0780 0004702 120.3235 239.8222 15.56228659010611 Aalto-2 1 42729U 98067MJ 17215.42815423 .00008221 00000-0 12167-3 0 9992 2 42729 051.6389 162.1127 0004692 121.0141 239.1312 15.56233917010654 SUSat 1 42730U 98067MK 17215.42995509 .00008016 00000-0 11914-3 0 9999 2 42730 051.6388 162.1234 0004765 120.0688 240.0776 15.56159462010646 i-INSPIRE II 1 42731U 98067ML 17215.23268325 .00010024 00000-0 14604-3 0 9999 2 42731 051.6381 163.0512 0008760 074.1725 286.0232 15.56357577010665 PolyITAN-2-SAU 1 42732U 98067MM 17215.42681929 .00008745 00000-0 12871-3 0 9991 2 42732 051.6382 162.0978 0008702 074.5617 285.6336 15.56272286010698 SNUSAT-1 1 42733U 98067MN 17215.23814461 .00008210 00000-0 12187-3 0 9997 2 42733 051.6383 163.0880 0008558 075.0090 285.1849 15.56138663010664 ExAlta-1 1 42734U 98067MP 17215.48936872 .00009025 00000-0 13201-3 0 9999 2 42734 051.6383 161.7667 0010366 096.2247 263.9925 15.56380477010652 Aoxiang-1 1 42735U 98067MQ 17215.43282961 .00007173 00000-0 10785-3 0 9994 2 42735 051.6388 162.1413 0009221 115.5603 244.6342 15.56009426012069 BeEagleSat 1 42736U 98067MR 17215.36840031 .00007279 00000-0 10916-3 0 9998 2 42736 051.6388 162.4610 0009146 114.2147 245.9801 15.56056526010747 Atlantis 1 42737U 98067MS 17215.27382042 .00017356 00000-0 23765-3 0 9995 2 42737 051.6379 162.5777 0009517 110.0382 250.1636 15.57454799010626 CAS-4B 1 42759U 17034B 17215.50968061 .00000033 00000-0 15698-4 0 9992 2 42759 043.0201 026.8292 0008881 286.8709 171.0915 15.08931531007459 CAS-4A 1 42761U 17034D 17215.50710538 .00000052 00000-0 16845-4 0 9995 2 42761 043.0210 026.8156 0009286 286.1051 170.9377 15.09005620007445 UCLSat 1 42765U 17036A 17215.33102462 .00001215 00000-0 58234-4 0 9993 2 42765 097.4466 274.6177 0013822 107.9346 252.3398 15.20754873006978 Object B 1 42766U 17036B 17215.56239281 .00000874 00000-0 44252-4 0 9994 2 42766 097.4470 274.7694 0018075 094.2729 266.0572 15.19496375006285 Object C 1 42767U 17036C 17215.19309291 .00000470 00000-0 25500-4 0 9990 2 42767 097.4460 274.3410 0010563 098.0220 262.2213 15.19256610006229 LituanicaSAT 2 1 42768U 17036D 17215.16428184 .00001712 00000-0 83215-4 0 9998 2 42768 097.4467 274.3814 0018153 098.8331 261.4960 15.19645410006230 Object E 1 42769U 17036E 17215.36085678 .00000590 00000-0 30831-4 0 9997 2 42769 097.4468 274.5790 0017559 096.3306 263.9929 15.19625712006180 InflateSail 1 42770U 17036F 17215.14909021 .00171176 00000-0 54819-2 0 9991 2 42770 097.4493 274.7078 0014279 153.6003 206.5969 15.31577628006181 Object G 1 42771U 17036G 17215.35724329 .00001634 00000-0 79226-4 0 9993 2 42771 097.4468 274.5834 0017217 097.5596 262.7595 15.19808634006202 Object H 1 42772U 17036H 17215.35573308 .00001667 00000-0 80640-4 0 9991 2 42772 097.4467 274.5848 0016925 097.1042 263.2118 15.19863034006206 Object J 1 42773U 17036J 17215.15687916 .00001661 00000-0 80250-4 0 9992 2 42773 097.4468 274.3922 0016696 097.7234 262.5897 15.19915972006174 Object K 1 42774U 17036K 17215.15628857 .00001366 00000-0 66584-4 0 9998 2 42774 097.4470 274.3944 0016616 097.5611 262.7512 15.19923786006168 Aalto 1 1 42775U 17036L 17215.35128554 .00000814 00000-0 40898-4 0 9997 2 42775 097.4469 274.5921 0016199 095.8391 264.4691 15.19989225006208 URSA MAIOR 1 42776U 17036M 17215.41611404 .00000834 00000-0 41797-4 0 9997 2 42776 097.4471 274.6597 0016071 095.9772 264.3295 15.20027179006218 COMPASS 2 1 42777U 17036N 17215.47484009 .00001385 00000-0 66719-4 0 9996 2 42777 097.4479 274.7393 0015165 099.9771 260.3176 15.20318871006214 Max Valier Sat 1 42778U 17036P 17215.47173877 .00000963 00000-0 47262-4 0 9998 2 42778 097.4484 274.7472 0014680 101.0933 259.1954 15.20408706006212 Object Q 1 42779U 17036Q 17215.40376499 .00001811 00000-0 85788-4 0 9995 2 42779 097.4471 274.6764 0014703 106.1256 254.1599 15.20519721006199 Object R 1 42780U 17036R 17215.40305158 .00001453 00000-0 69434-4 0 9993 2 42780 097.4469 274.6756 0014563 105.8952 254.3890 15.20536303006205 Object S 1 42781U 17036S 17215.40245687 .00001681 00000-0 79768-4 0 9998 2 42781 097.4469 274.6759 0014524 106.2456 254.0378 15.20570576006196 Object T 1 42782U 17036T 17215.40170109 .00001735 00000-0 82139-4 0 9991 2 42782 097.4470 274.6781 0014380 106.0671 254.2149 15.20598543006193 Object U 1 42783U 17036U 17215.40108783 .00001022 00000-0 49703-4 0 9990 2 42783 097.4468 274.6779 0014406 107.4520 252.8291 15.20587993006206 Pegasus 1 42784U 17036V 17215.46610717 .00001114 00000-0 53856-4 0 9998 2 42784 097.4469 274.7446 0014345 107.4637 252.8167 15.20622899006219 Object W 1 42785U 17036W 17215.40009311 .00000446 00000-0 23478-4 0 9999 2 42785 097.4470 274.6804 0014294 107.6021 252.6777 15.20615161006276 Object X 1 42786U 17036X 17215.46462406 .00000422 00000-0 22315-4 0 9997 2 42786 097.4469 274.7466 0014113 107.7118 252.5659 15.20660088006285 NUDATSat 1 42787U 17036Y 17215.46327132 .00001617 00000-0 76437-4 0 9995 2 42787 097.4469 274.7478 0014012 107.8862 252.3903 15.20751219006056 SUCHAI 1 1 42788U 17036Z 17215.33208089 .00001305 00000-0 62386-4 0 9993 2 42788 097.4468 274.6169 0014001 108.1108 252.1653 15.20720423006263 SKCUBE 1 42789U 17036AA 17215.33094165 .00001244 00000-0 59548-4 0 9990 2 42789 097.4467 274.6181 0013810 108.0355 252.2387 15.20759668006186 VZLUSAT 1 1 42790U 17036AB 17215.46059608 .00001436 00000-0 68105-4 0 9991 2 42790 097.4465 274.7492 0013544 108.0448 252.2264 15.20840330006203 Object AC 1 42791U 17036AC 17215.45965937 .00001128 00000-0 54125-4 0 9997 2 42791 097.4467 274.7517 0013389 108.3505 251.9188 15.20862783006193 Robusta 1B 1 42792U 17036AD 17215.45925248 .00001282 00000-0 61028-4 0 9990 2 42792 097.4465 274.7508 0013367 108.7287 251.5401 15.20882747006218 Object AE 1 42793U 17036AE 17215.38797382 .00000786 00000-0 38454-4 0 9994 2 42793 097.4464 274.6927 0012408 109.4402 250.8176 15.21066739006277 D-SAT 1 42794U 17036AF 17215.38595585 .00000701 00000-0 34560-4 0 9997 2 42794 097.4463 274.6941 0011576 106.9078 253.3428 15.21136340006194 Object AG 1 42795U 17036AG 17214.59567290 .00001568 00000-0 73337-4 0 9999 2 42795 097.4462 273.9129 0011496 109.7356 250.5121 15.21202962006075 Object U 1 42820U 98067MU 17215.21654252 .00007783 00000-0 11913-3 0 9992 2 42820 051.6389 163.6954 0004301 065.5603 294.5837 15.55398144004194 Object V 1 42821U 98067MV 17215.28146560 .00007682 00000-0 11786-3 0 9994 2 42821 051.6388 163.3793 0004377 067.3952 292.7502 15.55353347004186 Object W 1 42822U 98067MW 17215.28192143 .00007805 00000-0 11972-3 0 9997 2 42822 051.6390 163.3822 0004392 069.6711 290.4752 15.55331431004180 Object X 1 42823U 98067MX 17215.21846590 .00007746 00000-0 11900-3 0 9998 2 42823 051.6391 163.7096 0008005 081.6097 278.5801 15.55287443004179 Object Y 1 42824U 98067MY 17215.21937738 .00007638 00000-0 11769-3 0 9997 2 42824 051.6391 163.7156 0007836 082.7168 277.4713 15.55232174004170 TechnoSat 1 42829U 17042E 17215.53991028 .00000083 00000-0 13925-4 0 9997 2 42829 097.6123 124.5190 0014460 169.3706 190.7821 14.90634734003006 Mayak 1 42830U 17042F 17215.53952112 .00000469 00000-0 53247-4 0 9999 2 42830 097.6128 124.5215 0014629 166.7608 193.3997 14.90672573003006 /EX